Location: Unspecified
(0.0000°N, 0.0000°E)
Time: 03:39:37
(UTC+00:00)

ISS - Pass Details

Date: 11 November 2019
Orbit: 412 x 421 km, 51.6° (Epoch: 12 November)

Event Time Altitude Azimuth Distance (km) Brightness Sun altitude
Rises 19:39:35 0° 210° (SSW) 2,347 0.8 -27.4°
Reaches altitude 10° 19:41:41 10° 207° (SSW) 1,484 -0.4 -27.9°
Enters shadow 19:42:09 13° 205° (SSW) 1,296 -0.8 -28.0°
